�������l�o���
Date,Time,MP-1(��Sv/h),MP-2(��Sv/h),MP-3(��Sv/h),MP-4(��Sv/h),MP-5(��Sv/h),MP-6(��Sv/h),MP-7(��Sv/h),MP-8(��Sv/h),����,����(m/s),���J
2018/08/31,00:00,0.824,1.207,0.850,1.514,1.099,0.468,0.822,0.777,�쐼,3.7,��
2018/08/31,00:10,0.825,1.204,0.850,1.512,1.097,0.468,0.822,0.778,�쐼,2.6,��
2018/08/31,00:20,0.823,1.204,0.852,1.513,1.096,0.467,0.819,0.777,�쐼,4.5,��
2018/08/31,00:30,0.823,1.205,0.851,1.512,1.098,0.469,0.821,0.776,���쐼,3.4,��
2018/08/31,00:40,0.822,1.205,0.850,1.515,1.098,0.469,0.820,0.777,���k��,2.9,�L
2018/08/31,00:50,0.824,1.202,0.851,1.513,1.098,0.470,0.820,0.777,��,4.0,�L
2018/08/31,01:00,0.824,1.201,0.849,1.512,1.091,0.470,0.818,0.776,��,3.4,�L
2018/08/31,01:10,0.818,1.188,0.847,1.499,1.081,0.468,0.814,0.772,��,3.3,�L
2018/08/31,01:20,0.819,1.184,0.846,1.500,1.082,0.469,0.814,0.773,���쐼,2.5,�L
2018/08/31,01:30,0.819,1.182,0.847,1.498,1.083,0.469,0.815,0.773,��,2.6,�L
2018/08/31,01:40,0.816,1.181,0.846,1.498,1.080,0.470,0.816,0.772,�k��,3.4,�L
2018/08/31,01:50,0.819,1.181,0.846,1.496,1.079,0.471,0.814,0.774,���쐼,0.9,�L
2018/08/31,02:00,0.817,1.183,0.846,1.494,1.079,0.470,0.813,0.772,��,1.2,�L
2018/08/31,02:10,0.817,1.181,0.844,1.493,1.077,0.468,0.813,0.771,��쐼,0.9,��
2018/08/31,02:20,0.815,1.179,0.843,1.491,1.077,0.468,0.813,0.773,��쓌,1.9,�L
2018/08/31,02:30,0.815,1.181,0.840,1.491,1.075,0.468,0.812,0.770,��,2.5,��
2018/08/31,02:40,0.813,1.180,0.841,1.491,1.074,0.467,0.813,0.769,�쐼,2.5,��
2018/08/31,02:50,0.814,1.177,0.843,1.492,1.075,0.466,0.814,0.770,��,1.5,��
2018/08/31,03:00,0.815,1.176,0.842,1.490,1.075,0.468,0.812,0.771,��,1.5,��
2018/08/31,03:10,0.813,1.178,0.840,1.491,1.075,0.465,0.813,0.771,-,CALM,��
2018/08/31,03:20,0.814,1.177,0.841,1.489,1.075,0.467,0.812,0.773,-,CALM,��
2018/08/31,03:30,0.812,1.177,0.839,1.492,1.077,0.465,0.811,0.770,�쓌,0.6,��
2018/08/31,03:40,0.813,1.177,0.840,1.491,1.075,0.465,0.812,0.771,-,CALM,��
2018/08/31,03:50,0.811,1.175,0.838,1.492,1.077,0.464,0.811,0.771,-,CALM,��
2018/08/31,04:00,0.810,1.178,0.838,1.491,1.075,0.464,0.813,0.768,�쓌,0.9,��
2018/08/31,04:10,0.810,1.180,0.838,1.491,1.076,0.465,0.813,0.770,��,1.4,��
2018/08/31,04:20,0.809,1.177,0.838,1.491,1.076,0.467,0.812,0.773,��,1.1,�L
2018/08/31,04:30,0.810,1.176,0.838,1.489,1.074,0.465,0.812,0.773,��쓌,1.4,��
2018/08/31,04:40,0.810,1.178,0.839,1.492,1.075,0.466,0.812,0.771,�쐼,0.9,�L
2018/08/31,04:50,0.810,1.178,0.840,1.490,1.075,0.465,0.812,0.771,�쐼,3.0,��
2018/08/31,05:00,0.811,1.176,0.839,1.489,1.075,0.467,0.814,0.771,���쐼,6.4,��
2018/08/31,05:10,0.811,1.175,0.838,1.490,1.075,0.463,0.813,0.771,�쐼,5.0,��
2018/08/31,05:20,0.811,1.177,0.838,1.487,1.076,0.467,0.814,0.771,�쐼,5.1,��
2018/08/31,05:30,0.809,1.177,0.838,1.492,1.076,0.465,0.814,0.772,�쐼,5.6,��
2018/08/31,05:40,0.809,1.178,0.837,1.488,1.076,0.466,0.814,0.771,�쐼,3.6,��
2018/08/31,05:50,0.811,1.178,0.839,1.489,1.075,0.464,0.813,0.772,�쐼,2.3,��
2018/08/31,06:00,0.811,1.178,0.839,1.492,1.076,0.467,0.813,0.771,��쐼,2.6,��
2018/08/31,06:10,0.810,1.179,0.840,1.490,1.080,0.465,0.814,0.773,��,4.1,��
2018/08/31,06:20,0.811,1.180,0.839,1.489,1.077,0.465,0.813,0.771,��쓌,3.6,��
2018/08/31,06:30,0.810,1.178,0.840,1.493,1.078,0.463,0.815,0.773,��쓌,3.1,��
2018/08/31,06:40,0.811,1.181,0.839,1.491,1.076,0.465,0.814,0.772,�쓌,4.1,��
2018/08/31,06:50,0.809,1.178,0.840,1.492,1.078,0.464,0.811,0.772,�쓌,3.0,��
2018/08/31,07:00,0.811,1.174,0.840,1.492,1.078,0.464,0.815,0.771,��,1.5,��
2018/08/31,07:10,0.810,1.179,0.841,1.492,1.079,0.464,0.813,0.773,��쐼,2.6,��
2018/08/31,07:20,0.811,1.178,0.840,1.491,1.078,0.464,0.815,0.770,�쐼,2.0,��
2018/08/31,07:30,0.811,1.178,0.839,1.492,1.080,0.465,0.814,0.773,�쐼,1.2,��
2018/08/31,07:40,0.810,1.178,0.840,1.491,1.081,0.465,0.814,0.772,�쐼,0.9,��
2018/08/31,07:50,0.813,1.184,0.839,1.495,1.081,0.466,0.814,0.773,��,1.7,��
2018/08/31,08:00,0.811,1.184,0.838,1.494,1.081,0.465,0.814,0.772,��,1.5,��
2018/08/31,08:10,0.811,1.183,0.841,1.494,1.083,0.466,0.817,0.774,�쐼,1.9,��
2018/08/31,08:20,0.814,1.183,0.841,1.491,1.081,0.466,0.815,0.771,���k��,1.5,��
2018/08/31,08:30,0.814,1.185,0.841,1.493,1.083,0.469,0.815,0.772,���쐼,1.1,��
2018/08/31,08:40,0.815,1.186,0.841,1.494,1.083,0.468,0.814,0.770,��,1.1,��
2018/08/31,08:50,0.814,1.187,0.839,1.496,1.082,0.469,0.816,0.771,���쐼,0.6,��
2018/08/31,09:00,0.815,1.184,0.840,1.498,1.084,0.469,0.816,0.772,�쓌,0.9,��
2018/08/31,09:10,0.813,1.182,0.840,1.495,1.084,0.468,0.816,0.771,�쓌,1.7,��
2018/08/31,09:20,0.816,1.182,0.841,1.496,1.080,0.468,0.815,0.771,��쓌,1.7,��
2018/08/31,09:30,0.812,1.181,0.839,1.495,1.085,0.467,0.817,0.771,��쓌,1.5,��
2018/08/31,09:40,0.812,1.182,0.841,1.493,1.083,0.467,0.815,0.771,-,CALM,��
2018/08/31,09:50,0.814,1.180,0.843,1.497,1.083,0.468,0.817,0.771,�쓌,0.6,��
2018/08/31,10:00,0.815,1.182,0.840,1.496,1.085,0.469,0.816,0.770,�쓌,1.2,��
2018/08/31,10:10,0.813,1.185,0.841,1.494,1.086,0.467,0.817,0.771,�쓌,2.0,��
2018/08/31,10:20,0.816,1.183,0.837,1.498,1.085,0.468,0.817,0.773,�쓌,0.9,��
2018/08/31,10:30,0.814,1.187,0.842,1.499,1.086,0.468,0.816,0.771,��쓌,0.6,��
2018/08/31,10:40,0.817,1.188,0.842,1.496,1.087,0.469,0.817,0.772,�쓌,1.1,��
2018/08/31,10:50,0.817,1.192,0.845,1.496,1.088,0.471,0.817,0.771,���쓌,2.0,��
2018/08/31,11:00,0.817,1.188,0.845,1.499,1.088,0.470,0.817,0.773,�쓌,2.3,��
2018/08/31,11:10,0.819,1.190,0.845,1.497,1.090,0.470,0.817,0.771,�쓌,1.7,��
2018/08/31,11:20,0.819,1.188,0.843,1.501,1.091,0.469,0.818,0.772,�쓌,1.5,��
2018/08/31,11:30,0.820,1.187,0.843,1.500,1.092,0.472,0.818,0.773,���k��,0.9,��
2018/08/31,11:40,0.817,1.191,0.845,1.500,1.091,0.470,0.818,0.773,�k��,1.2,��
2018/08/31,11:50,0.817,1.193,0.846,1.501,1.091,0.470,0.818,0.773,�k��,1.7,��
2018/08/31,12:00,0.816,1.192,0.846,1.501,1.094,0.471,0.818,0.772,�k��,1.1,��
2018/08/31,12:10,0.815,1.193,0.845,1.501,1.092,0.471,0.818,0.773,�k�k��,2.0,��
2018/08/31,12:20,0.818,1.191,0.847,1.504,1.091,0.470,0.817,0.771,���k��,1.2,��
2018/08/31,12:30,0.817,1.191,0.847,1.500,1.093,0.469,0.818,0.771,�k,1.7,��
2018/08/31,12:40,0.818,1.188,0.847,1.501,1.092,0.470,0.817,0.771,�k,2.3,��
2018/08/31,12:50,0.817,1.190,0.847,1.500,1.092,0.470,0.818,0.771,�k�k��,2.3,��
2018/08/31,13:00,0.815,1.191,0.846,1.499,1.093,0.469,0.818,0.773,�k�k��,1.9,��
2018/08/31,13:10,0.816,1.189,0.846,1.501,1.091,0.469,0.818,0.772,��,2.0,��
2018/08/31,13:20,0.815,1.191,0.844,1.501,1.087,0.468,0.817,0.773,��쓌,0.9,��
2018/08/31,13:30,0.816,1.189,0.843,1.503,1.090,0.469,0.818,0.772,���쐼,1.7,��
2018/08/31,13:40,0.815,1.188,0.846,1.500,1.093,0.470,0.818,0.773,���k��,1.7,��
2018/08/31,13:50,0.815,1.189,0.848,1.502,1.090,0.469,0.818,0.775,��쐼,1.7,��
2018/08/31,14:00,0.818,1.189,0.848,1.501,1.093,0.466,0.821,0.775,�쐼,2.2,��
2018/08/31,14:10,0.817,1.189,0.848,1.503,1.092,0.467,0.821,0.775,��쐼,2.2,��
2018/08/31,14:20,0.820,1.191,0.847,1.502,1.094,0.467,0.820,0.775,��,1.4,��
2018/08/31,14:30,0.817,1.192,0.848,1.501,1.091,0.468,0.822,0.777,�쐼,0.9,��
2018/08/31,14:40,0.818,1.192,0.846,1.500,1.092,0.466,0.820,0.777,�쐼,1.1,��
2018/08/31,14:50,0.819,1.192,0.847,1.500,1.091,0.468,0.820,0.776,��,1.7,��
2018/08/31,15:00,0.818,1.193,0.847,1.502,1.091,0.469,0.820,0.777,��,3.5,��
2018/08/31,15:10,0.818,1.190,0.847,1.500,1.094,0.470,0.821,0.775,��,2.8,��
2018/08/31,15:20,0.817,1.194,0.847,1.502,1.090,0.470,0.820,0.776,�쐼,1.7,��
2018/08/31,15:30,0.817,1.190,0.849,1.505,1.094,0.469,0.820,0.779,��쐼,3.8,��
2018/08/31,15:40,0.819,1.191,0.846,1.500,1.093,0.469,0.820,0.774,�쐼,3.6,��
2018/08/31,15:50,0.818,1.194,0.846,1.502,1.092,0.469,0.821,0.775,�쐼,4.1,��
2018/08/31,16:00,0.820,1.195,0.846,1.507,1.093,0.469,0.821,0.774,��쐼,5.8,�L
2018/08/31,16:10,0.817,1.193,0.846,1.504,1.094,0.471,0.819,0.775,�쐼,3.8,�L
2018/08/31,16:20,0.813,1.186,0.845,1.499,1.085,0.469,0.818,0.775,��쐼,3.3,�L
2018/08/31,16:30,0.812,1.182,0.842,1.494,1.080,0.469,0.817,0.772,��쐼,5.7,�L
2018/08/31,16:40,0.810,1.181,0.841,1.494,1.080,0.470,0.818,0.771,��쐼,6.8,�L
2018/08/31,16:50,0.813,1.182,0.843,1.494,1.081,0.468,0.815,0.772,��,5.6,�L
2018/08/31,17:00,0.811,1.182,0.844,1.495,1.081,0.470,0.816,0.773,��,6.9,�L
2018/08/31,17:10,0.810,1.180,0.843,1.496,1.080,0.468,0.818,0.774,��,6.2,�L
2018/08/31,17:20,0.811,1.182,0.841,1.492,1.082,0.469,0.817,0.774,��쐼,5.6,�L
2018/08/31,17:30,0.811,1.181,0.842,1.494,1.081,0.469,0.817,0.773,��,7.2,��
2018/08/31,17:40,0.810,1.179,0.841,1.497,1.081,0.469,0.817,0.773,��,5.4,��
2018/08/31,17:50,0.811,1.181,0.842,1.495,1.079,0.467,0.816,0.775,��,6.5,��
2018/08/31,18:00,0.809,1.182,0.841,1.496,1.078,0.469,0.817,0.773,��,7.7,��
2018/08/31,18:10,0.809,1.181,0.843,1.494,1.079,0.468,0.818,0.775,��,7.4,��
2018/08/31,18:20,0.809,1.180,0.844,1.493,1.079,0.468,0.816,0.774,��쐼,6.3,�L
2018/08/31,18:30,0.810,1.180,0.843,1.494,1.081,0.469,0.818,0.773,��쐼,5.2,��
2018/08/31,18:40,0.808,1.179,0.844,1.494,1.078,0.469,0.819,0.773,��,5.8,��
2018/08/31,18:50,0.808,1.179,0.842,1.495,1.079,0.468,0.817,0.772,��쐼,3.7,��
2018/08/31,19:00,0.809,1.181,0.843,1.496,1.080,0.470,0.817,0.773,��,5.5,��
2018/08/31,19:10,0.810,1.180,0.843,1.492,1.080,0.467,0.817,0.773,��,5.2,��
2018/08/31,19:20,0.809,1.181,0.843,1.496,1.081,0.468,0.818,0.774,��쐼,5.1,�L
2018/08/31,19:30,0.809,1.182,0.842,1.496,1.081,0.468,0.816,0.775,��쐼,4.7,��
2018/08/31,19:40,0.807,1.181,0.843,1.498,1.080,0.468,0.817,0.774,��,5.4,��
2018/08/31,19:50,0.809,1.181,0.844,1.494,1.079,0.468,0.817,0.775,��쐼,5.5,��
2018/08/31,20:00,0.808,1.181,0.843,1.498,1.082,0.469,0.817,0.774,��쐼,5.5,�L
2018/08/31,20:10,0.807,1.185,0.842,1.497,1.081,0.468,0.817,0.773,��쐼,4.5,��
2018/08/31,20:20,0.809,1.183,0.842,1.495,1.081,0.468,0.816,0.774,��,4.9,��
2018/08/31,20:30,0.809,1.186,0.843,1.497,1.082,0.469,0.817,0.773,��쐼,4.2,��
2018/08/31,20:40,0.809,1.183,0.843,1.499,1.082,0.469,0.818,0.773,�쐼,5.2,��
2018/08/31,20:50,0.808,1.182,0.843,1.494,1.083,0.469,0.817,0.775,�쐼,4.3,��
2018/08/31,21:00,0.808,1.182,0.843,1.497,1.081,0.467,0.818,0.774,�쐼,3.5,��
2018/08/31,21:10,0.809,1.184,0.844,1.497,1.082,0.469,0.817,0.773,��쐼,2.6,��
2018/08/31,21:20,0.811,1.182,0.844,1.498,1.083,0.469,0.819,0.775,��쐼,3.0,��
2018/08/31,21:30,0.809,1.185,0.843,1.498,1.081,0.469,0.819,0.774,��,2.2,��
2018/08/31,21:40,0.810,1.184,0.842,1.496,1.084,0.470,0.818,0.773,�쐼,1.2,��
2018/08/31,21:50,0.808,1.185,0.844,1.498,1.082,0.468,0.816,0.774,�쐼,2.0,��
2018/08/31,22:00,0.811,1.185,0.842,1.500,1.081,0.469,0.818,0.774,���쐼,1.7,��
2018/08/31,22:10,0.810,1.184,0.845,1.497,1.080,0.470,0.819,0.775,���쐼,1.2,��
2018/08/31,22:20,0.809,1.186,0.844,1.496,1.084,0.470,0.817,0.774,��,1.2,��
2018/08/31,22:30,0.809,1.184,0.845,1.498,1.083,0.469,0.817,0.774,���k��,1.2,��
2018/08/31,22:40,0.812,1.185,0.844,1.498,1.083,0.469,0.818,0.775,��,1.1,��
2018/08/31,22:50,0.810,1.185,0.843,1.501,1.084,0.470,0.817,0.775,�쐼,0.9,��
2018/08/31,23:00,0.810,1.186,0.843,1.498,1.082,0.469,0.818,0.774,��쐼,1.1,��
2018/08/31,23:10,0.810,1.184,0.843,1.498,1.082,0.469,0.818,0.774,��,1.2,��
2018/08/31,23:20,0.809,1.187,0.844,1.499,1.083,0.470,0.818,0.774,���쐼,1.1,��
2018/08/31,23:30,0.811,1.189,0.843,1.499,1.083,0.469,0.816,0.772,�쐼,1.7,��
2018/08/31,23:40,0.811,1.187,0.842,1.498,1.083,0.469,0.816,0.777,���쐼,3.0,��
2018/08/31,23:50,0.810,1.189,0.843,1.500,1.082,0.471,0.817,0.774,��,2.6,��
